EW2847 Weather Reports


Display with metric or nautical units.
time (UTC)temp
F
wind
direction
speed
MPH
gust
MPH
rain 1hr
in
rain 24hr
in
rain mn
in
humidity
%
barometer
mb
20201026101520 29 148 2.0 6.0 0.00 0.00 0.00 95 1024.1
20201026100029 29 153 2.0 6.0 0.00 0.00 0.00 95 1024.1
20201026094509 29 150 1.0 6.0 0.00 0.00 0.00 95 1024.2
20201026093134 29 169 3.0 7.0 0.00 0.00 0.00 94 1024.4
20201026091724 29 157 3.0 7.0 0.00 0.00 0.00 94 1024.7
20201026090107 29 153 2.0 6.0 0.00 0.00 0.00 94 1024.9
20201026084716 29 159 2.0 6.0 0.00 0.00 0.00 93 1024.9
20201026083127 29 170 2.0 5.0 0.00 0.00 0.00 93 1025.0
20201026081601 29 168 2.0 5.0 0.00 0.00 0.00 93 1025.3
20201026080148 29 180 1.0 4.0 0.00 0.00 0.00 92 1025.5
20201026074558 29 179 1.0 4.0 0.00 0.00 0.00 92 1025.4
20201026073111 29 169 3.0 6.0 0.00 0.00 0.00 92 1025.4
20201026071607 29 168 3.0 7.0 0.00 0.00 0.00 92 1025.6
20201026070113 30 203 2.0 7.0 0.00 0.00 0.00 91 1025.9
20201026064610 30 182 2.0 6.0 0.00 0.00 0.00 90 1025.8
20201026063135 30 210 3.0 9.0 0.00 0.00 0.00 88 1026.2
20201026061620 30 178 2.0 7.0 0.00 0.00 0.00 88 1026.1
20201026060050 30 180 1.0 3.0 0.00 0.00 0.00 88 1026.2
20201026054552 30 173 2.0 4.0 0.00 0.00 0.00 89 1025.9
20201026053047 30 163 3.0 6.0 0.00 0.00 0.00 89 1026.0
20201026051529 29 173 2.0 3.0 0.00 0.00 0.00 90 1026.1
20201026050102 29 174 1.0 5.0 0.00 0.00 0.00 90 1026.3
20201026044533 29 177 3.0 7.0 0.00 0.00 0.00 90 1026.5
20201026043055 29 167 2.0 5.0 0.00 0.00 0.00 90 1026.6
20201026041541 29 159 1.0 7.0 0.00 0.00 0.00 90 1026.7
20201026040043 29 142 2.0 5.0 0.00 0.00 0.00 91 1026.7
20201026034540 29 152 1.0 5.0 0.00 0.00 0.00 92 1026.8
20201026033052 29 152 2.0 5.0 0.00 0.00 0.00 92 1026.9
20201026031534 29 140 1.0 4.0 0.00 0.00 0.00 92 1026.8
20201026030048 29 140 2.0 6.0 0.00 0.00 0.00 92 1027.1
20201026024526 29 159 2.0 5.0 0.00 0.00 0.00 92 1027.0
20201026023044 29 159 1.0 5.0 0.00 0.00 0.00 92 1027.0
20201026021536 29 173 1.0 3.0 0.00 0.00 0.00 92 1027.1
20201026020029 29 173 0.0 4.0 0.00 0.00 0.00 93 1026.8
20201026014526 29 173 0.0 3.0 0.00 0.00 0.00 93 1026.9
20201026013019 29 173 1.0 3.0 0.00 0.00 0.00 93 1027.0
20201026011540 29 173 1.0 5.0 0.00 0.00 0.00 93 1027.1
20201026010035 29 186 1.0 3.0 0.00 0.00 0.00 93 1027.2
20201026004519 29 194 2.0 3.0 0.00 0.01 0.00 93 1027.0
20201026003027 29 200 0.0 2.0 0.00 0.01 0.00 93 1027.2
20201026001549 29 200 0.0 1.0 0.00 0.01 0.00 92 1027.9
20201026000020 29 200 0.0 0.0 0.00 0.01 0.00 92 1027.8
20201025234516 29 200 0.0 0.0 0.00 0.01 0.00 91 1028.0
20201025233035 29 200 0.0 3.0 0.00 0.01 0.00 91 1028.3
20201025231524 29 200 1.0 3.0 0.00 0.01 0.00 90 1028.0
20201025230045 29 200 0.0 2.0 0.00 0.01 0.00 90 1027.9
20201025224528 29 200 0.0 2.0 0.00 0.01 0.00 90 1027.8
20201025223024 29 200 0.0 1.0 0.00 0.01 0.00 88 1027.5
20201025221516 29 200 0.0 2.0 0.00 0.01 0.00 88 1027.3
20201025220020 30 200 1.0 3.0 0.00 0.01 0.00 87 1027.1
20201025214519 30 205 1.0 3.0 0.00 0.02 0.00 87 1027.1
20201025213032 30 206 1.0 2.0 0.00 0.02 0.00 87 1027.5
20201025211518 30 206 0.0 2.0 0.00 0.02 0.00 86 1027.7
20201025210018 30 206 0.0 3.0 0.00 0.02 0.00 85 1027.9
20201025203146 31 226 0.0 3.0 0.00 0.02 0.00 84 1027.6
20201025203008 31 226 0.0 3.0 0.00 0.02 0.00 84 1027.6
20201025201823 31 226 0.0 3.0 0.00 0.02 0.00 84 1027.7
20201025200300 30 217 0.0 5.0 0.00 0.02 0.00 83 1027.8
20201025194734 30 215 1.0 3.0 0.00 0.02 0.00 83 1027.9
20201025193142 31 213 1.0 4.0 0.00 0.02 0.00 82 1028.0
20201025191628 31 213 0.0 3.0 0.00 0.02 0.00 81 1027.8
20201025190153 31 229 0.0 3.0 0.00 0.02 0.00 81 1027.6
20201025184724 31 238 0.0 3.0 0.00 0.03 0.00 82 1027.6
20201025183131 30 254 1.0 3.0 0.00 0.03 0.00 82 1027.7
20201025181830 30 277 0.0 3.0 0.00 0.03 0.00 81 1027.7
20201025180116 30 250 0.0 3.0 0.00 0.03 0.00 84 1027.8
20201025174813 29 245 1.0 3.0 0.00 0.03 0.00 85 1027.9
20201025173119 29 254 1.0 4.0 0.00 0.03 0.00 87 1027.9
20201025171704 29 292 1.0 3.0 0.00 0.03 0.00 87 1028.0
20201025170318 29 292 1.0 4.0 0.00 0.03 0.00 87 1028.1
20201025164712 29 302 1.0 5.0 0.00 0.04 0.00 88 1028.2
20201025163105 29 252 2.0 5.0 0.00 0.04 0.00 87 1028.3
20201025161619 29 317 2.0 4.0 0.00 0.04 0.00 86 1028.3
20201025160056 29 288 0.0 2.0 0.00 0.04 0.00 85 1028.1
20201025154711 29 286 1.0 3.0 0.00 0.05 0.00 86 1028.0
20201025153116 29 301 1.0 5.0 0.00 0.05 0.00 85 1027.9
20201025151619 29 275 2.0 5.0 0.00 0.05 0.00 87 1028.0
20201025150104 29 232 1.0 4.0 0.00 0.05 0.00 89 1027.7
20201025144541 28 275 1.0 4.0 0.00 0.05 0.00 90 1027.6
20201025143111 28 240 0.0 4.0 0.00 0.05 0.00 90 1027.5
20201025141557 28 247 0.0 4.0 0.00 0.05 0.00 92 1027.8
20201025140034 28 234 1.0 4.0 0.00 0.05 0.00 92 1027.5
20201025134547 27 210 2.0 4.0 0.00 0.05 0.00 92 1027.5
20201025133047 27 238 0.0 5.0 0.00 0.05 0.00 92 1027.0
20201025131602 27 224 0.0 4.0 0.00 0.05 0.00 93 1027.1
20201025130115 27 240 0.0 4.0 0.00 0.05 0.00 93 1027.1
20201025124522 26 236 0.0 4.0 0.00 0.06 0.00 93 1026.8
20201025123024 26 244 1.0 4.0 0.00 0.06 0.00 93 1026.6
20201025121521 26 218 0.0 3.0 0.00 0.06 0.00 93 1026.5
20201025120031 26 245 0.0 4.0 0.00 0.06 0.00 93 1026.1
20201025114521 26 225 0.0 3.0 0.00 0.06 0.00 93 1025.9
20201025113009 26 224 1.0 2.0 0.00 0.06 0.00 92 1025.8
20201025111522 26 232 0.0 4.0 0.00 0.06 0.00 92 1025.7
20201025110148 26 213 2.0 5.0 0.00 0.06 0.00 92 1025.5
20201025104809 25 209 1.0 5.0 0.00 0.06 0.00 92 1025.5
20201025103315 25 207 1.0 4.0 0.00 0.06 0.00 92 1025.4